Houlton, ME

8:11 AM EST on February 19, 2017 (GMT -0500)
Houlton International

Weather History for KHUL - November, 2011

Change the Weather History Date:

Sunday, November 13, 2011

  Actual Average Record
Temperature  
Mean Temperature 42 °F 34 °F  
Max Temperature 55 °F 42 °F 61 °F (2012)
Min Temperature 28 °F 26 °F 6 °F (1978)
Degree Days  
Heating Degree Days 23 31  
Month to date heating degree days 301 376  
Since 1 July heating degree days 1148 1512  
Cooling Degree Days 0 0  
Month to date cooling degree days 0 0  
Year to date cooling degree days 168 191  
Moisture  
Dew Point 36 °F    
Average Humidity 70    
Maximum Humidity 93    
Minimum Humidity 46    
Precipitation  
Precipitation 0.00 in 0.13 in 2.15 in (1982)
Month to date precipitation 1.37 1.76  
Year to date precipitation 39.90 34.44  
Sea Level Pressure  
Sea Level Pressure 30.00 in    
Wind  
Wind Speed 6 mph (South)    
Max Wind Speed 14 mph    
Max Gust Speed 21 mph    
Visibility 10 miles    
Events      
T = Trace of Precipitation, MM = Missing Value Source: NWS Daily Summary

Daily Weather History Graph

Daily Weather History Graph

Search for Another Location

Airport or City:

Trip Planner

Search our weather history database for the weather conditions in past years. The results will help you decide how hot, cold, wet, or windy it might be!

Date:

Astronomy

Nov. 13, 2011 Rise Set
Actual Time 6:28 AM EST 4:01 PM EST
Civil Twilight 5:56 AM EST 4:33 PM EST
Nautical Twilight 5:20 AM EST 5:10 PM EST
Astronomical Twilight 4:44 AM EST 5:45 PM EST
Moon 6:01 PM EST (11/13) 9:04 AM EST (11/13)
Length of Visible Light 10h 37m
Length of Day
9h 32m
Waning Gibbous, 93% of the Moon is Illuminated
Nov 13
Waning Gibbous
Nov 18
Last Quarter
Nov 25
New
Dec 2
First Quarter
Dec 10
Full

Hourly Weather History & Observations

Time (EST) Temp. Windchill Dew Point Humidity Pressure Visibility Wind Dir Wind Speed Gust Speed Precip Events Conditions
12:53 AM 36.0 °F 32.1 °F 30.0 °F 79% 30.00 in 10.0 mi SSW 4.6 mph - N/A   Clear
1:53 AM 35.1 °F 31.0 °F 28.9 °F 78% 30.02 in 10.0 mi SSW 4.6 mph - N/A   Clear
2:53 AM 35.1 °F 31.0 °F 28.9 °F 78% 30.03 in 10.0 mi SSW 4.6 mph - N/A   Clear
3:53 AM 34.0 °F 29.8 °F 28.9 °F 82% 30.05 in 10.0 mi South 4.6 mph - N/A   Clear
4:53 AM 28.9 °F - 27.0 °F 92% 30.06 in 10.0 mi Calm Calm - N/A   Clear
5:53 AM 34.0 °F 29.8 °F 28.9 °F 82% 30.09 in 10.0 mi South 4.6 mph - N/A   Overcast
6:53 AM 35.1 °F 32.2 °F 30.0 °F 82% 30.11 in 10.0 mi SSW 3.5 mph - N/A   Overcast
7:53 AM 37.9 °F 34.4 °F 30.9 °F 76% 30.12 in 10.0 mi South 4.6 mph - N/A   Clear
8:53 AM 43.0 °F 39.5 °F 32.0 °F 65% 30.12 in 10.0 mi South 5.8 mph - N/A   Clear
9:53 AM 46.9 °F - 32.0 °F 56% 30.13 in 10.0 mi SSW 8.1 mph - N/A   Clear
10:53 AM 50.0 °F - 33.1 °F 52% 30.10 in 10.0 mi SW 10.4 mph 16.1 mph N/A   Clear
11:53 AM 53.1 °F - 34.0 °F 48% 30.08 in 10.0 mi South 6.9 mph - N/A   Clear
12:53 PM 53.1 °F - 34.0 °F 48% 30.04 in 10.0 mi South 5.8 mph - N/A   Clear
1:53 PM 54.0 °F - 35.1 °F 49% 30.03 in 10.0 mi South 11.5 mph 18.4 mph N/A   Clear
2:53 PM 52.0 °F - 36.0 °F 54% 30.01 in 10.0 mi South 5.8 mph - N/A   Clear
3:53 PM 51.1 °F - 36.0 °F 56% 29.99 in 10.0 mi SSE 6.9 mph - N/A   Clear
4:53 PM 50.0 °F - 37.0 °F 61% 29.97 in 10.0 mi SSE 6.9 mph - N/A   Clear
5:53 PM 48.0 °F - 37.0 °F 66% 29.97 in 10.0 mi SSE 6.9 mph - N/A   Clear
6:53 PM 48.0 °F - 39.0 °F 71% 29.96 in 10.0 mi South 10.4 mph 16.1 mph N/A   Clear
7:53 PM 46.9 °F - 42.1 °F 83% 29.93 in 10.0 mi South 6.9 mph - N/A   Clear
8:53 PM 46.9 °F - 44.1 °F 90% 29.91 in 10.0 mi Variable 6.9 mph - N/A   Partly Cloudy
9:53 PM 48.0 °F - 44.1 °F 86% 29.89 in 10.0 mi South 8.1 mph - N/A   Clear
10:17 PM 46.4 °F 43.5 °F 44.6 °F 93% 29.88 in 9.0 mi SSW 5.8 mph - N/A   Mostly Cloudy
10:53 PM 48.0 °F - 45.0 °F 89% 29.87 in 9.0 mi South 6.9 mph - N/A   Overcast
11:00 PM 48.2 °F - 44.6 °F 87% 29.85 in 9.0 mi South 5.8 mph - N/A   Overcast
11:53 PM 48.0 °F - 45.0 °F 89% 29.85 in 10.0 mi South 6.9 mph - N/A   Overcast